Overview Statistics Trail Chart Weather Telemetry Raw packets
 

This is the latest recevied weather packets stored in our database for station/object AA7VG. If no packets are shown the sender has not sent any weather packets the latest 10 day(s).

<< 8 9 10 11 12 13 14 >>
Time Temp. Humidity Pressure Rain* Wind** Luminosity Snow
1788555946 25.56° C 25% 1011 hPa 0 mm - - -
1788555643 25.56° C 26% 1011.1 hPa 0 mm - - -
1788555342 25° C 27% 1010.9 hPa 0 mm - - -
1788555039 25° C 27% 1010.9 hPa 0 mm - - -
1788554735 25.56° C 26% 1010.6 hPa 0 mm - - -
1788554431 25.56° C 26% 1010.7 hPa 0 mm - - -
1788554126 25.56° C 26% 1010.7 hPa 0 mm - - -
1788553823 25.56° C 26% 1010.9 hPa 0 mm - - -
1788553519 25.56° C 26% 1010.7 hPa 0 mm - - -
1788553215 25.56° C 26% 1010.9 hPa 0 mm - - -
1788552909 26.11° C 25% 1010.7 hPa 0 mm - - -
1788552605 26.67° C 25% 1010.9 hPa 0 mm - - -
1788552303 26.67° C 25% 1011.1 hPa 0 mm - - -
1788551998 26.11° C 25% 1010.6 hPa 0 mm - - -
1788551696 25.56° C 24% 1010.5 hPa 0 mm - - -
1788551395 26.67° C 25% 1010.6 hPa 0 mm - - -
1788551091 26.11° C 25% 1010.9 hPa 0 mm - - -
1788550786 25.56° C 25% 1010.4 hPa 0 mm - - -
1788550481 26.11° C 25% 1010.6 hPa 0 mm - - -
1788550177 26.11° C 26% 1010.5 hPa 0 mm - - -
1788549871 26.11° C 25% 1010.6 hPa 0 mm - - -
1788549568 26.11° C 25% 1010.7 hPa 0 mm - - -
1788549264 26.67° C 24% 1010.7 hPa 0 mm - - -
1788548961 26.67° C 25% 1010.6 hPa 0 mm - - -
1788548661 26.11° C 25% 1010.6 hPa 0 mm - - -

* Rain latest hour (hover to see other rain measurements)
** Current wind speed in m/s (hover to see current wind gust speed)